Location: *
(0.1100°N, 5.5000°E)
Time: 07:45:53
(UTC+00:00)

Daily predictions for brighter satellites

Satellite Brightness Start Highest point End
(mag) Time Altitude Azimuth Time Altitude Azimuth Time Altitude Azimuth
ARGOS 4.0 17:50:58 10° S 17:56:17 58° WSW 18:01:36 10° NNW
NOAA 6 4.0 17:51:45 10° SSE 17:56:55 76° ENE 18:02:02 10° N
ARIANE 5 R/B 4.0 17:53:22 10° W 17:57:47 81° S 18:39:04 10° E
ARIANE 5 R/B 4.0 17:53:21 10° W 17:57:47 81° S 18:39:04 10° E
ARIANE 5 R/B 4.0 17:53:22 10° W 17:57:48 81° S 18:39:04 10° E
ARIANE 5 R/B 4.0 17:53:21 10° W 17:57:48 81° S 18:39:04 10° E
BREEZE M DEB (TANK) 4.1 17:58:06 10° ENE 17:58:21 10° ENE 17:58:36 10° ENE
NATO 3D Rocket 3.2 17:55:34 10° WNW 18:00:17 86° NNE 18:05:22 10° ESE
YAOGAN 1 4.3 17:59:45 10° ESE 18:01:37 13° ENE 18:03:28 10° NE
Cosmos 2237 Rocket 3.6 17:58:23 10° NE 18:01:39 16° ENE 18:04:55 10° ESE
Cosmos 1934 Rocket 3.9 17:58:16 10° S 18:04:17 69° E 18:10:17 10° N
Cosmos 540 Rocket 3.9 18:00:12 10° S 18:05:00 42° ESE 18:09:47 10° NNE
Cosmos 468 Rocket 4.0 18:02:16 10° S 18:07:23 68° ESE 18:12:31 10° NNE
FUSE 4.3 18:08:30 10° SW 18:13:48 58° SSE 18:18:16 14° ENE
CCE 1 Rocket 4.2 18:12:29 10° WNW 18:18:33 65° SSW 18:22:33 10° SE
Cosmos 1763 Rocket 4.0 18:16:59 10° SSW 18:21:57 60° WNW 18:26:58 10° N
SJ 16-02 1.6 18:20:09 10° N 18:24:21 45° ENE 18:28:32 10° SSE
PSLV R/B 4.2 18:22:29 10° SSE 18:26:17 42° ENE 18:30:05 10° N
Cosmos 1486 Rocket 4.1 18:25:04 10° NNW 18:30:16 81° WSW 18:35:31 10° S
Milstar 3 3.4 18:18:33 10° WNW 18:31:10 83° NNE 18:38:29 10° ESE
Cosmos 1844 Rocket 4.2 18:29:14 10° SE 18:32:41 16° ESE 18:33:17 16° E
USA 267 4.2 18:28:24 10° NNE 18:34:31 44° NW 18:40:41 10° WSW
ARIANE DEB (SYLDA) 4.0 18:30:01 10° WNW 18:34:59 62° N 18:57:00 14° E
ARIANE DEB (SYLDA) 4.0 18:30:01 10° WNW 18:35:00 62° N 18:57:01 14° E
ARIANE DEB (SYLDA) 4.0 18:30:01 10° WNW 18:35:00 62° NNE 18:56:59 14° E
ARIANE DEB (SYLDA) 4.0 18:30:00 10° WNW 18:35:00 62° NNE 18:56:59 14° E
ARIANE DEB (SYLDA) 4.0 18:30:01 10° WNW 18:35:00 62° NNE 18:56:53 14° E
ARIANE DEB (SYLDA) 4.0 18:30:00 10° WNW 18:35:00 62° NNE 18:56:58 14° E
Cosmos 1605 Rocket 4.0 18:36:31 10° S 18:42:51 90° S 18:49:15 10° N
Ariane 3 Deb 3.7 18:31:50 10° W 18:44:22 47° NNW 18:46:17 29° NE
Landsat 5 3.5 18:45:14 31° NE 18:47:00 57° ESE 18:51:13 10° S
ARIANE 44LP R/B 4.4 18:19:40 10° W 18:47:07 89° NNW 18:49:36 30° E
NOSS 0 Rocket 3.9 18:41:20 10° NNW 18:47:33 88° ENE 18:53:47 10° SSE
SEDSat Delta rocket 2.6 18:46:32 10° NW 18:50:37 83° NE 18:52:16 34° ESE
Okean 1 3.2 18:48:38 10° S 18:52:32 86° W 18:54:29 28° N
BREEZE-M R/B 2.9 18:50:21 10° NW 18:53:04 62° SW 18:57:41 10° SSE
Spelda 30 4.5 18:49:00 10° W 18:53:07 72° N 19:02:51 24° E
SWIFT 3.3 18:49:59 10° W 18:54:00 43° SSW 18:56:37 19° SE
Ariane H10 3.7 18:24:25 10° W 18:56:37 83° N 18:59:27 33° E
DELTA 2 R/B (1) 3.5 18:51:57 10° SW 18:57:30 84° SE 18:59:27 42° NE
Ariane H10+ 3.6 18:52:15 10° WSW 18:57:35 57° SSE 19:08:05 19° E
Cosmos 1743 3.9 19:00:21 28° SE 19:00:21 28° SE 19:02:23 10° SSE
Palapa B4 Rocket 3.8 18:54:12 10° WNW 18:59:02 64° NNE 19:02:06 33° E
Skynet4D Del rocket 3.4 18:54:03 10° WSW 18:59:26 86° NNW 19:01:06 45° ENE
Cosmos 1378 3.7 18:56:41 10° SSW 19:00:15 55° W 19:01:56 28° NNW
CZ-4B R/B 3.1 18:54:39 10° SSE 19:00:18 73° ENE 19:05:52 10° N
Meteor 1-18 Rocket 4.2 18:55:52 10° S 19:01:24 57° E 19:03:12 40° NE
Haruka 3.9 18:50:11 10° SW 19:02:04 46° SSE 19:03:44 34° ESE
Aureole 1 Rocket 4.5 18:58:47 10° NNW 19:05:55 87° WSW 19:14:14 10° S
Cosmos 2100 Rocket 4.2 19:02:11 10° SSE 19:08:13 46° E 19:08:54 44° ENE
ARIANE 5 DEB (SYLDA 5A) 2.5 19:08:22 10° W 19:11:04 86° N 19:11:38 67° E
ATLAS CENTAUR R/B 2.3 19:07:54 10° NW 19:11:23 40° WSW 19:14:44 10° S
ATLAS 3B CENTAUR R/B 3.4 19:07:07 10° WSW 19:18:03 77° NNW 19:21:34 44° NE
Cosmos 2123 Rocket 4.1 19:12:25 10° N 19:18:34 73° W 19:24:44 10° S
Delta 128 4.0 19:14:47 10° SW 19:19:53 69° SSE 19:20:21 65° ESE
Cosmos 841 Rocket 4.5 19:15:15 10° SSW 19:20:07 43° WNW 19:22:50 23° NNW
NOSS 3-4 (A) 3.8 19:15:55 10° S 19:20:55 42° SE 19:20:55 42° SE
NOSS 3-4 (C) 3.8 19:16:03 10° S 19:20:59 41° SE 19:20:59 41° SE
Cosmos 1666 Rocket 4.1 19:20:52 35° NW 19:22:24 55° W 19:26:41 10° S
CZ-4 R/B 2.5 19:20:33 10° S 19:22:56 36° S 19:22:56 36° S
Feng Yun 1-1 Rocket 4.1 19:20:15 10° SSE 19:25:51 77° ENE 19:26:18 72° NNE
ARIANE 5 R/B 3.4 19:24:25 10° W 19:25:27 27° W 19:25:27 27° W
Cosmos 1777 Rocket 4.2 19:23:28 10° NNW 19:28:41 67° WSW 19:33:53 10° S
BREEZE-M DEB (TANK) 4.1 19:29:34 10° WSW 19:31:48 26° W 19:31:48 26° W
Okean O Rocket 2.6 19:34:14 10° S 19:38:29 45° WSW 19:38:37 44° W
Cosmos 1633 Rocket 4.5 19:43:18 35° W 19:43:18 35° W 19:47:12 10° SSW
Cosmos 1802 Rocket 4.5 19:38:41 10° S 19:43:03 48° SSE 19:43:03 48° SSE
Cosmos 2237 Rocket 3.6 19:40:17 10° NW 19:45:25 36° WSW 19:50:34 10° S
Ariane H10-3 4.2 19:43:16 10° W 19:47:03 84° S 19:47:31 78° ESE
Ariane H10 3.6 19:32:06 10° W 19:47:22 66° SSW 19:47:22 66° SSW
Cosmos 1459 Rocket 4.3 19:50:13 10° SSW 19:55:51 62° WSW 19:55:51 62° WSW
CZ-3C R/B 3.9 20:02:06 10° WSW 20:05:42 32° S 20:19:16 10° ESE
Cosmos 1844 Rocket 4.3 20:11:15 10° SW 20:14:59 30° W 20:14:59 30° W
